sat.trackr.live / text

‹ back to catalog

KUIPER-00252

NORAD 67157 · 2025-301AA

PAYLOAD ACTIVE UNKNOWN

§ Identity

Operator
Country
US
Launch date
2025-12-16
Launch site
AFETR
Launch vehicle
Mass (kg)
RCS (m²)

External: N2YO · Heavens-Above · Gunter

§ Orbital elements

Epoch: 2026-05-25T00:09:55.037664Z

Period
97.30 min
Inclination
51.9001°
Eccentricity
0.0000535
Mean motion
14.79938600 rev/d
Perigee alt
629.1 km
Apogee alt
629.9 km
Semi-major
7,007.7 km
B*
4.3067e-4
RAAN
83.1368°
Arg perigee
80.8582°
Mean anomaly
279.2441°
Rev number
2,510

§ Raw data

KUIPER-002521 67157U 25301AA  26145.00688701  .00003064  00000+0  43067-3 0  99902 67157  51.9001  83.1368 0000535  80.8582 279.2441 14.79938600 25101

JSON: /api/v1/satellites/67157 · /tle

For live sub-satellite position, see the globe view (requires WebGL).

§ Visibility from observer

Set your observer location to see the next 7 days of passes ≥ 10°. The values pass through the URL so the page stays shareable.

No JS? Fill the form by hand. The geolocation button needs JavaScript.